Flag for Algeria Weather past 2 weeks in Constantine, Algeria

Now
45 °F

Passing clouds.


Feels Like: 45 °F
Forecast: 38 / 54 °F
Wind: No wind

Location: Constantine Airport

Current Time: Dec 21, 2014 at 12:15:01 AM

Latest Report: Dec 20, 2014 at 11:30 PM


Visibility: N/A

Pressure: 30.42 "Hg

Humidity: 93%

Dew point: 43 °F

Location of ConstantineLocation

Historic Weather in Constantine — Graph

°F

Constantine temperature yesterday

Maximum temperature yesterday: 61 °F (at 1:30 PM)
Minimum temperature yesterday: 45 °F (at 5:00 AM)
Average temperature yesterday: 52 °F

Past Weeks' High & Low Weather Summary

 TemperatureHumidityPressure
High61 °F (Dec 20, 1:30 PM)100% (Dec 18, 11:00 PM)30.45 "Hg (Dec 18, 11:00 PM)
Low34 °F (Dec 13, 7:00 AM)44% (Dec 6, 2:30 PM)29.89 "Hg (Dec 9, 3:30 PM)
Average46 °F79%30.16 "Hg
* Reported Dec 5 10:00 PM — Dec 20 10:30 PM, Constantine, Weather by CustomWeather, © 2014

Note: Actual official high and low records may vary slightly from our data, if they occured in-between our weather recording intervals... More about our weather records

Advertising

Constantine weather history for previous 24 hours

 ConditionsComfort  
Time TempWeatherWind HumidityBarometerVisibility
10:30 PM
Dec 20
46 °FPassing clouds.No wind93%30.42 "Hg5 mi
10:00 PM46 °FPassing clouds.No wind87%30.42 "HgN/A
9:30 PM46 °FPassing clouds.No wind87%30.42 "HgN/A
9:00 PM50 °FPassing clouds.3 mph88%30.42 "HgN/A
8:30 PM48 °FPassing clouds.No wind87%30.42 "HgN/A
8:00 PM48 °FPassing clouds.3 mph87%30.42 "HgN/A
7:30 PM48 °FPassing clouds.3 mph87%30.42 "HgN/A
7:00 PM50 °FPassing clouds.7 mph82%30.42 "HgN/A
6:30 PM50 °FPassing clouds.7 mph88%30.39 "HgN/A
6:00 PM54 °FPassing clouds.7 mph82%30.39 "HgN/A
5:30 PM54 °FPassing clouds.7 mph82%30.39 "HgN/A
5:00 PM57 °FScattered clouds.9 mph77%30.39 "HgN/A
4:30 PM61 °FScattered clouds.8 mph63%30.39 "HgN/A
4:00 PM61 °FScattered clouds.12 mph63%30.39 "HgN/A
3:30 PM61 °FPassing clouds.7 mph63%30.39 "HgN/A
3:00 PM61 °FPassing clouds.7 mph63%30.39 "HgN/A
2:30 PM61 °FPassing clouds.8 mph68%30.39 "HgN/A
2:00 PM61 °FPassing clouds.5 mph68%30.39 "HgN/A
1:30 PM61 °FPassing clouds.3 mph63%30.39 "HgN/A
1:00 PM59 °FPassing clouds.3 mph68%30.42 "HgN/A
12:30 PM59 °FPassing clouds.No wind72%30.42 "HgN/A
12:00 PM59 °FPassing clouds.No wind72%30.42 "HgN/A
11:30 AM59 °FPassing clouds.7 mph68%30.45 "HgN/A
11:00 AM55 °FPassing clouds.No wind77%30.45 "HgN/A
10:30 AM55 °FScattered clouds.No wind82%30.45 "HgN/A
10:00 AM52 °FScattered clouds.No wind94%30.45 "HgN/A
9:30 AM50 °FScattered clouds.No wind94%30.45 "Hg5 mi
9:00 AM52 °FPartly sunny.No wind94%30.45 "Hg5 mi
8:30 AM48 °FPartly sunny.No wind87%30.45 "Hg5 mi
8:00 AM48 °FPartly sunny.No wind87%30.45 "Hg4 mi
7:30 AM48 °FPassing clouds.No wind94%30.42 "Hg4 mi
7:00 AM46 °FPassing clouds.No wind93%30.42 "Hg5 mi
6:30 AM46 °FPassing clouds.No wind93%30.42 "Hg4 mi
6:00 AM46 °FPassing clouds.No wind93%30.42 "Hg4 mi
5:30 AM46 °FPassing clouds.No wind93%30.42 "Hg4 mi
5:00 AM45 °FPassing clouds.No wind93%30.42 "Hg4 mi
4:30 AM46 °FPassing clouds.No wind93%30.42 "Hg3 mi
4:00 AM48 °FPassing clouds.No wind94%30.42 "Hg3 mi
3:30 AM50 °FPassing clouds.No wind88%30.42 "Hg3 mi
3:00 AM50 °FPassing clouds.No wind94%30.42 "Hg3 mi
2:30 AM50 °FPassing clouds.No wind94%30.42 "Hg3 mi
2:00 AM50 °FPassing clouds.No wind94%30.42 "Hg4 mi
1:30 AM50 °FPassing clouds.No wind94%30.42 "Hg4 mi
1:00 AM50 °FPassing clouds.No wind94%30.42 "Hg4 mi
12:30 AM50 °FPassing clouds.No wind94%30.45 "Hg4 mi
12:00 AM50 °FPassing clouds.No wind94%30.45 "Hg4 mi
Weather by CustomWeather, © 2014

See weather overviewHow to use our weather pages